EZY351Q EGGD-EGPH

Flight info

Callsign EZY351Q
Flight time N/A
Altitude 27000
Route BCN P69 DIZIM DCT KISWO DCT AVTIC DCT ANJAK N38 NOKIN UP16 RIBEL DCT INPIP
Aircraft A320/M-SDE2E3FGHIJ1RWXYZ/LB1

Departure

Time 2026-04-30 20:17
Airport Bristol Airport (EGGD)

Arrival

Time N/A
Airport Edinburgh Airport (EGPH)
Time Latitude Longitude Altitude Speed Heading
2026-04-30 19:47 51.38521 -2.71141 619 ft 0 kts 356°
2026-04-30 20:05 51.38503 -2.71140 627 ft 4 kts 356°
2026-04-30 20:05 51.38462 -2.71121 626 ft 4 kts 288°
2026-04-30 20:06 51.38460 -2.71088 621 ft 1 kts 266°
2026-04-30 20:06 51.38460 -2.71087 620 ft 1 kts 266°
2026-04-30 20:08 51.38456 -2.71164 615 ft 12 kts 265°
2026-04-30 20:09 51.38449 -2.71356 613 ft 20 kts 267°
2026-04-30 20:09 51.38441 -2.71583 608 ft 21 kts 267°
2026-04-30 20:09 51.38430 -2.72087 603 ft 28 kts 268°
2026-04-30 20:10 51.38407 -2.72663 616 ft 26 kts 266°
2026-04-30 20:10 51.38397 -2.72935 605 ft 20 kts 266°
2026-04-30 20:10 51.38390 -2.73092 606 ft 9 kts 267°
2026-04-30 20:11 51.38388 -2.73145 607 ft 0 kts 267°
2026-04-30 20:15 51.38388 -2.73160 608 ft 8 kts 266°
2026-04-30 20:15 51.38383 -2.73245 608 ft 11 kts 259°
2026-04-30 20:15 51.38346 -2.73329 627 ft 11 kts 214°
2026-04-30 20:15 51.38233 -2.73316 629 ft 12 kts 146°
2026-04-30 20:16 51.38216 -2.73245 627 ft 10 kts 95°
2026-04-30 20:16 51.38219 -2.73129 629 ft 11 kts 86°
2026-04-30 20:16 51.38229 -2.72894 629 ft 48 kts 87°
2026-04-30 20:16 51.38266 -2.71958 626 ft 119 kts 86°
2026-04-30 20:17 51.38321 -2.70349 772 ft 156 kts 90°
2026-04-30 20:17 51.38357 -2.68652 1550 ft 154 kts 93°
2026-04-30 20:17 51.38405 -2.66837 1982 ft 174 kts 92°
2026-04-30 20:17 51.38464 -2.64757 2350 ft 199 kts 92°
2026-04-30 20:18 51.38534 -2.62411 2844 ft 223 kts 92°
2026-04-30 20:18 51.38613 -2.59785 3389 ft 246 kts 91°
2026-04-30 20:18 51.38887 -2.57003 4143 ft 262 kts 73°
2026-04-30 20:18 51.39938 -2.54541 4985 ft 278 kts 42°
2026-04-30 20:19 51.41701 -2.53195 5834 ft 289 kts
2026-04-30 20:19 51.43695 -2.53518 6695 ft 294 kts 336°
2026-04-30 20:19 51.45310 -2.55479 7531 ft 294 kts 304°
2026-04-30 20:19 51.46431 -2.58228 8392 ft 296 kts 299°
2026-04-30 20:20 51.47519 -2.61049 9241 ft 300 kts 299°
2026-04-30 20:20 51.48616 -2.63919 10081 ft 304 kts 299°
2026-04-30 20:20 51.49745 -2.66876 10516 ft 323 kts 299°
2026-04-30 20:20 51.50966 -2.70062 10871 ft 343 kts 299°
2026-04-30 20:21 51.52240 -2.73358 11522 ft 351 kts 299°
2026-04-30 20:21 51.53541 -2.76703 12257 ft 356 kts 299°
2026-04-30 20:21 51.54861 -2.80096 12984 ft 361 kts 298°
2026-04-30 20:21 51.56201 -2.83551 13779 ft 366 kts 298°
2026-04-30 20:22 51.57552 -2.87054 14441 ft 371 kts 298°
2026-04-30 20:22 51.58917 -2.90597 15104 ft 375 kts 298°
2026-04-30 20:22 51.60298 -2.94187 15778 ft 378 kts 298°
2026-04-30 20:22 51.61687 -2.97802 16407 ft 382 kts 298°
2026-04-30 20:23 51.63089 -3.01463 17031 ft 387 kts 298°
2026-04-30 20:23 51.64508 -3.05169 17660 ft 391 kts 298°
2026-04-30 20:23 51.65936 -3.08913 18283 ft 395 kts 298°
2026-04-30 20:23 51.67383 -3.12711 18819 ft 399 kts 298°
2026-04-30 20:24 51.68868 -3.16510 19341 ft 404 kts 303°
2026-04-30 20:24 51.70778 -3.19878 19881 ft 411 kts 318°
2026-04-30 20:24 51.73159 -3.22452 20429 ft 416 kts 333°
2026-04-30 20:24 51.75868 -3.24080 20851 ft 418 kts 348°
2026-04-30 20:25 51.81638 -3.24080 21906 ft 419 kts 11°
2026-04-30 20:25 51.84525 -3.23361 22428 ft 421 kts 11°
2026-04-30 20:26 51.90363 -3.21903 23437 ft 427 kts 11°
2026-04-30 20:26 51.96270 -3.20442 24337 ft 432 kts 11°
2026-04-30 20:26 51.99255 -3.19705 24739 ft 434 kts 11°
2026-04-30 20:27 52.05282 -3.18418 25499 ft 441 kts
2026-04-30 20:27 52.11449 -3.17954 26304 ft 446 kts
2026-04-30 20:28 52.17666 -3.17489 27065 ft 450 kts
2026-04-30 20:28 52.23816 -3.17028 27159 ft 428 kts
2026-04-30 20:29 52.29720 -3.16578 27157 ft 423 kts
2026-04-30 20:30 52.38471 -3.15867 27165 ft 423 kts
2026-04-30 20:30 52.47297 -3.15173 27168 ft 423 kts
2026-04-30 20:31 52.56117 -3.14501 27162 ft 423 kts
2026-04-30 20:32 52.64924 -3.13823 27164 ft 422 kts
2026-04-30 20:32 52.70773 -3.13066 27161 ft 420 kts 13°
2026-04-30 20:33 52.73573 -3.11775 27158 ft 417 kts 24°
2026-04-30 20:33 52.78827 -3.07787 27152 ft 415 kts 28°
2026-04-30 20:33 52.81414 -3.05766 27151 ft 416 kts 28°
2026-04-30 20:34 52.86612 -3.01699 27137 ft 416 kts 28°
2026-04-30 20:34 52.91931 -2.97916 27143 ft 418 kts 23°
2026-04-30 20:35 52.94698 -2.96233 27146 ft 418 kts 23°
2026-04-30 20:35 52.97389 -2.94593 27151 ft 418 kts 23°
2026-04-30 20:35 53.02849 -2.91258 27144 ft 419 kts 23°
2026-04-30 20:36 53.05569 -2.89588 27143 ft 419 kts 23°
2026-04-30 20:36 53.08304 -2.87906 27144 ft 420 kts 23°
2026-04-30 20:36 53.13786 -2.84516 27145 ft 420 kts 23°
2026-04-30 20:37 53.16525 -2.82812 27148 ft 420 kts 23°
2026-04-30 20:37 53.19261 -2.81109 27164 ft 420 kts 23°
2026-04-30 20:37 53.22005 -2.79406 27171 ft 420 kts 23°
2026-04-30 20:37 53.24783 -2.77683 27170 ft 420 kts 23°
2026-04-30 20:38 53.27517 -2.75989 27173 ft 421 kts 23°
2026-04-30 20:38 53.30255 -2.74289 27179 ft 421 kts 23°
2026-04-30 20:38 53.33001 -2.72577 27180 ft 421 kts 23°
2026-04-30 20:39 53.38459 -2.69156 27186 ft 421 kts 23°
2026-04-30 20:39 53.41220 -2.67420 27191 ft 421 kts 24°
2026-04-30 20:39 53.43966 -2.65691 27182 ft 421 kts 24°
2026-04-30 20:40 53.49450 -2.62250 27183 ft 421 kts 23°
2026-04-30 20:40 53.52190 -2.60532 27194 ft 421 kts 23°
2026-04-30 20:40 53.54935 -2.58808 27191 ft 421 kts 23°
2026-04-30 20:41 53.60421 -2.55339 27172 ft 421 kts 24°
2026-04-30 20:41 53.63160 -2.53596 27176 ft 421 kts 24°
2026-04-30 20:41 53.65904 -2.51846 27180 ft 421 kts 24°
2026-04-30 20:41 53.68646 -2.50100 27183 ft 422 kts 24°
2026-04-30 20:42 53.71396 -2.48351 27196 ft 422 kts 24°
2026-04-30 20:42 53.74140 -2.46608 27198 ft 422 kts 24°
2026-04-30 20:42 53.79632 -2.43105 27199 ft 422 kts 24°
2026-04-30 20:43 53.82375 -2.41350 27209 ft 422 kts 24°
2026-04-30 20:43 53.85114 -2.39593 27212 ft 422 kts 24°
2026-04-30 20:43 53.87859 -2.37831 27211 ft 422 kts 24°
2026-04-30 20:44 53.93359 -2.34292 27218 ft 422 kts 24°
2026-04-30 20:44 53.96102 -2.32536 27215 ft 423 kts 22°
2026-04-30 20:44 54.01882 -2.31021 27225 ft 427 kts 358°
2026-04-30 20:45 54.07671 -2.33132 27215 ft 427 kts 337°
2026-04-30 20:45 54.10458 -2.35054 27215 ft 427 kts 336°
2026-04-30 20:45 54.13208 -2.36963 27226 ft 427 kts 336°
2026-04-30 20:46 54.21466 -2.42708 27229 ft 427 kts 336°
2026-04-30 20:46 54.24221 -2.44629 27228 ft 427 kts 336°
2026-04-30 20:47 54.29718 -2.48469 27232 ft 427 kts 336°
2026-04-30 20:47 54.32463 -2.50388 27239 ft 427 kts 336°
2026-04-30 20:48 54.37967 -2.54249 27242 ft 427 kts 336°
2026-04-30 20:48 54.40714 -2.56181 27237 ft 427 kts 336°
2026-04-30 20:48 54.43464 -2.58118 27234 ft 427 kts 336°
2026-04-30 20:48 54.46213 -2.60056 27234 ft 427 kts 336°
2026-04-30 20:49 54.48961 -2.61996 27232 ft 427 kts 336°
2026-04-30 20:49 54.51708 -2.63939 27237 ft 426 kts 336°
2026-04-30 20:49 54.54449 -2.65880 27241 ft 426 kts 336°
2026-04-30 20:50 54.59937 -2.69761 27265 ft 426 kts 336°
2026-04-30 20:50 54.62676 -2.71703 27252 ft 426 kts 336°
2026-04-30 20:50 54.65419 -2.73652 27249 ft 426 kts 336°
2026-04-30 20:50 54.68161 -2.75609 27245 ft 427 kts 336°
2026-04-30 20:51 54.70901 -2.77569 27242 ft 426 kts 336°
2026-04-30 20:51 54.76389 -2.81501 27229 ft 426 kts 335°
2026-04-30 20:51 54.79126 -2.83468 27229 ft 426 kts 335°
2026-04-30 20:52 54.81868 -2.85439 27228 ft 426 kts 335°
2026-04-30 20:52 54.84626 -2.87429 27232 ft 433 kts 335°
2026-04-30 20:52 54.90053 -2.91342 26911 ft 413 kts 335°
2026-04-30 20:53 54.92693 -2.93243 26500 ft 409 kts 335°
2026-04-30 20:53 54.95312 -2.95128 26057 ft 406 kts 335°
2026-04-30 20:53 54.97915 -2.97008 25610 ft 404 kts 335°
2026-04-30 20:54 55.03065 -3.00745 24768 ft 398 kts 335°
2026-04-30 20:54 55.05616 -3.02598 24351 ft 396 kts 335°
2026-04-30 20:54 55.08153 -3.04447 23931 ft 394 kts 335°
2026-04-30 20:55 55.13185 -3.08133 23026 ft 390 kts 335°
2026-04-30 20:55 55.15673 -3.09960 22606 ft 387 kts 335°
2026-04-30 20:55 55.18144 -3.11773 22207 ft 383 kts 335°
2026-04-30 20:56 55.22208 -3.14754 21522 ft 379 kts 335°
2026-04-30 20:56 55.24632 -3.16534 21136 ft 376 kts 335°
2026-04-30 20:56 55.29415 -3.20065 20374 ft 369 kts 333°
2026-04-30 20:57 55.31626 -3.22233 19743 ft 362 kts 326°
2026-04-30 20:57 55.33765 -3.24538 19104 ft 359 kts 326°
2026-04-30 20:57 55.35884 -3.26829 18505 ft 355 kts 326°
2026-04-30 20:58 55.40054 -3.31333 17188 ft 349 kts 326°
2026-04-30 20:58 55.42116 -3.33562 16557 ft 347 kts 326°
2026-04-30 20:58 55.44164 -3.35779 15918 ft 344 kts 326°
2026-04-30 20:58 55.46196 -3.37982 15314 ft 341 kts 326°
2026-04-30 20:59 55.50208 -3.42332 14163 ft 336 kts 325°
2026-04-30 20:59 55.52192 -3.44481 13562 ft 333 kts 325°
2026-04-30 21:00 55.56099 -3.48720 12372 ft 327 kts 326°
2026-04-30 21:00 55.59934 -3.52895 11165 ft 320 kts 326°
2026-04-30 21:01 55.63682 -3.56990 9994 ft 314 kts 326°
2026-04-30 21:01 55.65511 -3.59060 9343 ft 308 kts 320°
2026-04-30 21:01 55.67752 -3.65104 8227 ft 286 kts 290°
2026-04-30 21:02 55.68514 -3.68216 8107 ft 265 kts 289°
2026-04-30 21:02 55.69221 -3.71111 7882 ft 250 kts 289°
2026-04-30 21:02 55.69901 -3.73899 7488 ft 244 kts 289°
2026-04-30 21:02 55.70566 -3.76656 7039 ft 241 kts 289°
2026-04-30 21:03 55.71264 -3.79328 6587 ft 240 kts 302°
2026-04-30 21:03 55.72510 -3.81258 6127 ft 241 kts 336°
2026-04-30 21:03 55.74142 -3.81866 5784 ft 241 kts 356°
2026-04-30 21:03 55.75817 -3.81985 5468 ft 241 kts 359°
2026-04-30 21:04 55.77486 -3.81994 5192 ft 239 kts
2026-04-30 21:04 55.79072 -3.81250 4905 ft 236 kts 27°
2026-04-30 21:04 55.81288 -3.77319 4474 ft 225 kts 61°
2026-04-30 21:05 55.82108 -3.74940 4287 ft 220 kts 61°
2026-04-30 21:05 55.82888 -3.72679 4156 ft 214 kts 62°
2026-04-30 21:05 55.83665 -3.70424 4081 ft 210 kts 62°
2026-04-30 21:05 55.84427 -3.68205 3892 ft 210 kts 62°
2026-04-30 21:06 55.85190 -3.65985 3629 ft 211 kts 62°
2026-04-30 21:06 55.85925 -3.63843 3376 ft 213 kts 62°
2026-04-30 21:06 55.86641 -3.61753 3109 ft 215 kts 62°
2026-04-30 21:06 55.87454 -3.59382 2815 ft 217 kts 62°
2026-04-30 21:07 55.88233 -3.57107 2518 ft 212 kts 62°
2026-04-30 21:07 55.88984 -3.54915 2243 ft 203 kts 62°
2026-04-30 21:07 55.89691 -3.52848 1990 ft 190 kts 62°
2026-04-30 21:07 55.90348 -3.50921 1723 ft 179 kts 61°
2026-04-30 21:08 55.90961 -3.49125 1512 ft 160 kts 62°
2026-04-30 21:08 55.91513 -3.47508 1279 ft 146 kts 62°
2026-04-30 21:08 55.92023 -3.46010 1023 ft 138 kts 60°
2026-04-30 21:08 55.92510 -3.44580 790 ft 131 kts 59°
2026-04-30 21:09 55.92983 -3.43205 688 ft 131 kts 59°
2026-04-30 21:09 55.93448 -3.41853 554 ft 129 kts 59°
2026-04-30 21:09 55.93900 -3.40511 384 ft 129 kts 59°
2026-04-30 21:09 55.94332 -3.39249 220 ft 129 kts 59°
2026-04-30 21:10 55.94707 -3.38114 113 ft 124 kts 59°